Location: Unspecified
(30.8073°N, 0.0000°E)
Time: 23:56:24
(UTC+00:00)

OTV 5 (USA 277) - Visible Passes

Search period start: 20 June 2019 00:00
Search period end: 30 June 2019 00:00
Orbit: 310 x 325 km, 54.5° (Epoch: 08 May)

Date Brightness Start Highest point End Pass type
(mag) Time Alt. Az. Time Alt. Az. Time Alt. Az.
20 Jun ? 21:42:46 12° N 21:42:46 12° N 21:43:14 10° N visible
21 Jun ? 20:19:06 10° SW 20:21:50 82° SE 20:24:35 10° NE visible
22 Jun ? 04:18:17 10° NNW 04:20:38 25° NE 04:22:56 10° ESE visible
22 Jun ? 20:34:15 10° WSW 20:36:36 25° NW 20:38:57 10° NNE visible
24 Jun ? 03:14:00 10° N 03:15:44 15° NE 03:17:26 10° E visible
24 Jun ? 19:29:06 10° WSW 19:31:44 46° NW 19:34:25 10° NNE visible
25 Jun ? 03:27:55 10° NNW 03:30:35 47° NE 03:33:13 10° SE visible
25 Jun ? 19:44:53 10° W 19:46:36 15° NW 19:48:18 10° N visible
26 Jun ? 03:42:42 10° WNW 03:45:15 36° SW 03:47:48 10° SSE visible
